Weather in Yamba

Australia     29°26′18″S   153°21′25″E
temp.,
°C
wind,
m/s
gust,
m/s
humid.,
%
clouds,
%
prec.,
mm/h
press.,
hPa
HPBL,
m
24 july, sat
sat2401:00+9w119950 0.0 100832
04:00+9wnw129949 0.0 100646
07:00+8wnw129942 0.0 100741
10:00+16wnw27750 0.0 1008503
13:00+21wnw49360 0.0 10052019
16:00+18wnw37470 0.0 1006902
19:00+10nw29700 0.0 1009185
22:00+8nnw29810 0.0 1011148
25 july, sun
sun2501:00+7nw12810 0.0 101037
04:00+7nnw13790 0.0 100841
07:00+8nnw11730 0.0 101033
10:00+17w412402 0.0 10101841
13:00+19wsw49300 0.0 10101923
16:00+17w37400 0.0 10111096
19:00+10wnw310570 0.0 1015235
22:00+7wsw25680 0.0 101783
26 july, mon
mon2601:00+5w23760 0.0 101757
04:00+4w13780 0.0 101755
07:00+4wnw12760 0.0 102051
10:00+14wsw26420 0.0 1020521
13:00+19wsw23370 0.0 10171087
16:00+18nne12490 0.0 101659
19:00+11nne11700 0.0 101913
22:00+8wsw11810 0.0 102113
27 july, tue
tue2701:00+7wsw23890 0.0 102163
04:00+6wsw24920 0.0 102073
07:00+6w12910 0.0 102243
10:00+16w23520 0.0 1022439
13:00+20nne23390 0.0 10191362
16:00+17ne36570 0.0 1017384
19:00+12nne26860 0.0 1018118
22:00+9wnw11951 0.0 101821
28 july, wed
wed2801:00+8wnw11986 0.0 101724
04:00+7wnw11951 0.0 101626
07:00+6nw12890 0.0 101644
10:00+17nnw38460 0.0 1015479
13:00+23nnw48340 0.0 10101324
16:00+22nnw39400 0.0 1008626
19:00+18nnw414480 0.0 1010511
22:00+12nnw26734 0.0 1009105